SCP
0 0 0 0 0 0 0 0 0 0 1 0 0 0 0 1 1 1 0 1 1 1 0 0 0 0 0 0 0 0 0 0 0 0 0 0 0 0 0 0 0 0 0 0
0 0 0 0 0 0 0 0 0 0 0 0 0 0 0 1 1 1 1 1 1 0 0 0 0 0 0 0 0 0 0 0 0 0 0 0 0 0 0 0 0 0 0 0
0 0 0 0 0 0 0 0 0 0 0 0 0 0 0 0 0 1 1 1 1 0 0 0 0 0 0 0 0 0 0 0 0 0 0 0 0 0 0 0 0 0 0 0
0 0 0 0 0 0 0 0 0 0 0 0 0 0 0 0 0 1 1 1 1 0 0 0 0 0 0 0 0 0 0 0 0 0 0 0 0 0 0 0 0 0 0 0
0 0 0 0 0 0 0 0 0 0 0 0 0 0 0 0 0 0 1 1 0 0 0 0 1 1 1 0 0 0 0 0 0 0 0 0 0 0 0 0 0 0 0 0
0 0 0 0 0 0 0 0 0 0 0 0 0 0 0 0 0 0 0 0 0 0 0 0 1 1 1 0 0 0 0 0 0 0 0 0 0 0 0 0 0 0 0 0
0 0 0 0 0 0 0 0 0 0 0 0 0 0 0 0 0 0 0 0 0 1 1 1 1 1 1 1 0 0 0 0 0 0 0 0 0 0 0 0 0 0 0 0
0 0 0 0 0 0 0 0 0 0 0 0 0 0 0 0 0 0 0 0 0 0 1 1 1 2 1 1 0 0 0 0 0 0 0 0 0 0 0 0 0 0 0 0
0 0 0 0 0 0 0 0 0 0 0 0 0 0 0 0 0 0 0 0 0 0 1 1 1 1 1 1 1 0 0 0 0 0 0 0 0 0 0 0 0 0 0 0
0 0 0 0 0 0 0 0 0 0 0 0 0 0 0 0 0 0 0 0 0 0 0 1 1 1 1 1 1 1 0 0 0 0 0 0 0 0 0 0 0 0 0 0
0 0 0 0 0 0 0 0 0 0 0 0 0 0 0 0 0 0 0 0 0 0 0 1 1 1 1 1 1 1 0 0 0 0 0 0 0 0 0 0 0 0 0 0
0 0 0 0 0 0 0 0 0 0 0 0 0 0 0 0 0 0 0 0 0 0 0 1 1 1 1 1 1 0 0 0 0 0 0 0 0 0 0 0 0 0 0 0
0 0 0 0 0 0 0 0 0 0 0 0 0 0 0 0 0 0 0 0 0 0 0 1 1 1 1 1 1 0 0 0 0 0 0 0 0 0 0 0 0 0 0 0
0 0 0 0 0 0 0 0 0 0 0 0 0 0 0 0 0 0 0 0 0 0 0 1 1 1 1 1 1 0 0 0 0 0 0 0 0 0 0 0 0 0 0 0
0 0 0 0 0 0 0 0 0 0 0 0 0 0 0 0 0 0 0 0 0 0 0 1 1 1 1 1 1 0 0 0 0 0 0 0 0 0 0 0 0 0 0 0
0 0 0 0 0 0 0 0 0 0 0 0 0 0 0 0 0 0 0 0 0 0 0 0 1 1 0 1 0 0 0 0 0 0 0 0 0 0 0 0 0 0 0 0
0 0 0 0 0 0 0 0 0 0 0 0 0 0 0 0 0 0 0 0 0 0 0 0 0 0 0 0 0 0 0 0 0 0 0 0 0 0 0 0 0 0 0 0
0 0 0 0 0 0 0 0 0 0 0 0 0 0 0 0 0 0 0 0 0 0 0 0 0 0 0 0 0 0 0 0 0 0 0 0 0 0 0 0 0 0 0 0
0 0 0 0 0 0 0 0 0 0 0 0 0 0 0 0 0 0 0 0 0 0 0 0 0 0 0 0 0 0 0 0 0 0 0 0 0 0 0 0 0 0 0 0
0 0 0 0 0 0 0 0 0 0 0 0 0 0 0 0 0 0 0 0 0 0 0 0 0 0 0 0 0 0 0 0 0 0 0 0 0 0 0 0 0 0 0 0
0 0 0 0 0 0 0 0 0 0 0 0 0 0 0 0 0 0 0 0 0 0 0 0 0 0 0 0 0 0 0 0 0 0 0 0 0 0 0 0 0 0 0 0
0 0 0 0 0 0 0 0 0 0 0 0 0 0 0 0 0 0 0 0 0 0 0 0 0 0 0 0 0 0 0 0 0 0 0 0 0 0 0 0 0 0 0 0
0 0 0 0 0 0 0 0 0 0 0 0 0 0 0 0 0 0 0 0 0 0 0 0 0 0 0 0 0 0 0 0 0 0 0 0 0 0 0 0 0 0 0 0
0 0 0 0 0 0 0 0 0 0 0 0 0 0 0 0 0 0 0 0 0 0 0 0 0 0 0 0 0 0 0 0 0 0 0 0 0 0 0 0 0 0 0 0
0 0 0 0 0 0 0 0 0 0 0 0 0 0 0 0 0 0 0 0 0 0 0 0 0 0 0 0 0 0 0 0 0 0 1 0 0 0 0 0 0 0 0 0
0 0 0 0 0 0 0 0 0 0 0 0 0 0 0 0 0 0 0 0 0 0 0 0 0 0 0 0 0 0 0 0 0 1 1 0 0 0 0 0 0 0 0 0
Wind_Speed
9 7 7 9 9 3 2 4 4 1 3 5 6 7 6 8 9 9 8 8 9 9 9 9 9 8 7 6 3 4 4 4 3 2 2 2 2 1 2 2 3 3 4 5
8 10 10 7 6 5 6 7 4 3 4 7 7 8 7 8 10 9 9 9 9 9 9 10 9 9 7 7 4 4 5 5 5 2 1 1 1 1 2 1 2 3 4 5
9 7 7 6 6 6 6 4 3 2 7 10 9 8 7 6 7 6 5 5 7 10 11 12 10 8 8 7 5 3 6 6 5 3 2 2 2 1 2 1 2 2 2 3
4 3 5 5 4 6 3 4 5 6 7 5 6 6 4 5 6 6 5 4 4 6 8 11 10 9 8 7 5 4 6 5 5 4 3 1 1 1 1 0 1 0 2 2
4 5 5 4 3 4 1 3 7 9 8 10 8 6 2 5 5 6 7 6 5 5 7 9 10 10 8 7 6 3 6 6 5 4 4 1 1 1 1 1 1 0 2 2
3 4 3 1 1 2 3 7 11 10 8 7 5 3 3 3 4 3 5 7 7 6 7 8 9 9 7 7 6 5 6 5 5 3 3 3 2 1 1 0 1 1 1 2
5 6 4 1 3 4 6 6 4 3 2 3 5 4 1 6 6 3 2 4 6 6 7 8 9 9 8 8 7 6 7 6 5 4 4 4 3 1 1 1 1 1 1 1
4 6 8 6 6 3 5 6 3 3 3 5 6 3 4 9 6 3 1 1 4 7 7 8 10 9 9 8 8 7 7 6 6 5 4 3 3 2 1 1 1 0 0 2
2 3 6 4 4 5 4 4 5 6 9 8 4 2 4 7 6 3 2 2 3 6 7 8 9 9 9 9 8 7 7 6 6 6 4 3 3 2 1 1 1 0 0 1
5 1 4 5 3 6 6 6 4 4 4 5 6 4 3 5 4 3 2 3 3 4 6 7 8 9 9 9 8 8 7 7 6 6 5 4 2 2 2 1 0 1 1 1
6 3 3 5 6 7 7 6 5 5 5 5 5 3 2 4 3 1 1 2 4 5 6 7 8 8 9 9 9 8 8 7 6 6 5 4 3 3 3 3 2 1 3 2
6 5 4 5 3 2 4 6 6 5 6 6 6 3 5 4 2 1 2 2 4 6 7 7 8 9 9 9 10 9 8 7 6 5 5 5 5 4 3 4 4 3 2 1
8 6 4 2 2 2 5 6 6 6 7 7 7 4 2 3 3 3 3 3 4 6 7 7 8 8 9 9 9 9 8 8 7 6 5 5 5 5 5 4 4 3 2 1
4 9 10 7 5 4 6 7 7 7 6 9 10 10 6 5 5 3 2 3 3 6 7 8 8 8 8 9 9 10 8 8 8 7 6 5 5 5 4 3 4 3 3 3
6 9 12 12 10 9 11 11 10 10 11 12 12 11 9 8 7 6 4 3 2 4 6 8 8 9 9 9 9 9 9 8 9 8 7 6 5 5 4 4 3 2 1 2
7 10 12 14 14 13 14 13 13 12 12 11 11 9 7 7 7 8 7 6 3 2 4 6 8 9 10 10 9 8 10 9 9 8 8 6 5 5 5 5 5 4 3 3
9 12 13 12 14 14 13 13 11 7 6 7 7 7 8 9 9 8 6 6 5 4 3 4 7 8 9 11 11 10 10 10 9 9 8 8 6 6 6 5 4 4 4 3
13 12 8 11 13 14 8 6 3 2 3 4 5 7 9 9 8 4 6 7 7 6 3 3 4 7 8 9 11 10 9 11 10 9 8 8 7 6 6 5 4 4 4 4
13 10 8 9 11 12 10 8 7 4 3 8 8 9 11 11 9 7 13 11 9 7 5 2 3 5 7 8 10 11 10 11 11 10 9 8 8 7 6 6 5 4 4 3
7 7 7 8 11 12 6 9 8 5 2 9 10 10 12 12 8 9 13 13 11 10 7 3 2 4 6 7 8 10 11 10 10 10 9 8 8 8 7 6 5 3 3 3
4 6 8 10 12 8 7 8 7 3 5 9 10 10 11 10 9 11 13 12 11 9 8 5 3 3 3 5 6 8 9 10 9 9 9 8 8 8 7 5 4 3 3 2
9 7 7 8 10 4 10 7 7 7 8 9 10 11 11 11 12 12 12 11 11 10 8 6 4 3 2 3 5 7 8 8 9 9 9 8 8 7 6 6 4 4 3 3
7 6 5 6 5 4 5 5 5 6 8 9 9 10 11 12 12 13 12 11 10 10 9 7 5 4 3 3 4 5 5 7 10 10 9 8 8 6 6 6 5 4 3 3
10 11 10 10 8 9 8 6 6 7 8 9 9 11 12 12 13 13 11 11 10 10 9 8 6 5 4 4 4 4 4 8 10 10 9 8 8 7 6 5 4 3 3 2
12 11 12 14 13 12 7 8 11 11 10 11 11 11 11 12 12 12 11 10 9 9 9 8 7 6 6 4 4 5 5 7 9 10 9 9 8 8 6 5 3 4 3 3
13 14 13 12 11 10 10 12 13 12 12 12 12 12 11 12 12 12 10 9 9 10 10 10 9 8 7 6 5 5 6 8 9 9 9 8 7 7 8 8 6 10 7 10
Wind_Direction
182 189 205 211 209 224 329 267 254 218 247 248 259 264 244 198 200 202 206 202 198 189 173 153 139 130 132 134 158 131 144 132 109 58 15 51 59 5 71 52 57 354 1 5
183 209 207 202 216 212 236 266 303 27 302 279 270 264 249 213 204 205 208 204 195 180 159 144 147 151 153 148 185 178 135 101 93 95 10 130 104 329 106 29 66 26 19 11
191 211 202 189 218 236 255 289 340 321 281 273 277 268 247 203 192 189 207 221 203 179 167 158 159 154 152 155 181 167 113 124 122 121 53 28 42 337 66 48 79 49 40 28
204 211 190 190 219 251 272 348 321 300 298 296 281 289 270 177 164 175 189 213 223 173 159 155 156 151 163 162 166 164 131 120 103 107 83 32 89 21 62 16 92 85 96 62
190 188 195 201 218 255 303 295 286 282 282 281 273 277 297 142 162 178 175 186 200 171 153 152 154 155 160 151 143 131 111 114 116 114 132 243 60 352 39 28 85 328 123 108
157 174 191 216 201 292 291 277 269 254 257 271 288 290 299 116 103 111 155 172 177 172 154 148 142 141 142 137 134 133 125 129 131 154 175 170 151 224 213 138 55 315 145 124
179 181 174 237 236 213 244 272 304 319 292 315 308 273 241 89 83 59 87 159 162 157 151 148 143 146 149 148 148 149 145 151 156 182 207 180 179 231 186 91 109 320 16 88
196 182 177 194 246 260 245 263 278 321 315 289 280 279 95 100 101 101 119 173 153 153 156 154 152 154 156 157 158 162 161 167 170 185 206 187 160 201 121 99 302 262 71 89
326 126 146 167 250 290 282 278 298 283 282 289 310 327 109 109 111 117 137 146 155 153 152 155 156 160 162 162 164 170 165 175 175 184 193 185 187 167 145 199 245 297 112 92
322 115 167 157 227 243 279 312 312 299 308 312 311 331 60 74 66 88 126 160 172 157 160 163 159 162 164 162 166 175 176 183 177 182 191 179 180 160 149 266 77 358 359 106
307 303 191 183 217 232 212 245 261 277 280 295 312 329 57 78 64 42 200 176 168 169 169 166 161 166 164 161 167 178 182 184 175 179 180 169 174 192 182 189 158 224 264 225
324 302 269 245 243 314 291 277 282 290 301 306 301 306 97 110 148 210 236 197 173 169 169 165 163 168 169 170 175 183 182 178 172 177 176 183 180 182 210 187 184 215 225 325
344 310 316 356 346 303 271 262 273 284 289 286 288 292 152 209 220 208 217 207 186 174 172 168 168 174 176 176 178 180 183 174 168 173 186 192 180 185 206 187 171 196 181 224
289 285 293 291 281 266 271 270 265 270 276 281 285 295 307 314 324 317 265 222 209 186 180 177 175 179 180 179 184 180 184 171 168 173 193 197 187 186 195 187 164 189 181 186
273 286 299 305 304 286 280 276 270 265 269 276 285 294 311 320 320 323 318 295 248 207 184 182 180 183 183 181 189 186 179 173 172 172 190 199 192 181 179 165 156 185 214 202
298 295 299 295 294 290 286 277 268 266 271 277 286 295 319 331 340 342 341 333 307 264 205 191 188 188 188 185 188 191 174 171 171 175 185 188 195 180 176 179 177 190 214 233
291 295 299 297 302 298 285 283 279 279 306 315 315 336 351 350 345 342 346 339 326 309 263 207 195 196 194 188 187 194 180 172 176 180 183 181 190 184 178 185 183 191 205 223
262 273 283 289 294 284 291 315 334 336 337 2 353 4 5 351 328 352 16 356 336 325 298 240 204 196 195 189 183 188 177 172 179 184 184 177 181 181 177 181 186 195 203 211
239 252 265 272 276 280 293 330 334 319 28 27 19 13 3 350 332 23 16 1 346 329 310 270 228 204 199 199 185 183 180 179 182 185 181 175 173 175 177 184 195 199 200 208
224 242 258 269 279 283 327 3 354 323 51 35 28 18 5 2 359 357 356 351 346 339 329 312 272 224 202 200 185 182 183 181 182 180 173 170 170 170 175 181 188 187 180 190
261 254 250 263 270 279 9 4 343 326 31 27 22 14 5 1 351 342 344 346 341 337 332 333 310 268 215 192 182 186 184 182 176 165 162 164 164 165 166 169 169 165 164 176
302 294 280 276 274 298 34 24 29 19 17 19 14 5 355 346 341 341 342 340 339 337 336 335 322 301 261 201 189 194 194 176 156 153 156 158 159 164 158 152 157 160 161 172
287 296 306 299 318 14 50 51 45 16 358 1 358 351 343 337 336 336 335 335 336 336 334 329 316 302 283 237 208 205 195 158 148 149 153 154 153 153 148 150 158 164 167 177
294 318 313 301 300 322 340 3 20 10 351 347 347 341 337 332 330 328 329 330 333 334 330 323 312 299 284 260 231 218 186 157 152 156 158 159 159 154 148 147 157 156 160 169
301 308 301 297 301 308 327 358 354 349 344 339 337 333 330 326 321 322 322 326 328 325 324 319 310 297 287 270 240 219 191 168 163 163 166 168 163 157 147 119 86 117 82 107
271 276 277 283 304 311 321 338 338 338 335 332 329 325 323 319 317 319 320 322 321 321 321 319 313 305 295 283 256 223 196 178 172 173 174 170 163 155 145 131 98 64 93 92